カタログに戻る

DELTA 1 DEB

運用中LEO
NORAD 7127·DEBRIS·🇺🇸 United States

打ち上げ Nov 6, 1973 から Vandenberg Space Force Base

Loading…

次のパス (今後24時間)

TLE

最新Source: Space-Track

元期: Sep 14, 2026, 12:46 UTC

1 07127U 73086CR  26257.53259093 -.00000123  00000-0 -93935-3 0  9999
2 07127 101.8864 266.1498 0266219 150.2958   2.2521 12.00866062315843

AllMySatでDELTA 1 DEBをリアルタイム追跡

Download on the App Store